Location: General Nathan Twining Observatory
(34.5931°N, 106.8201°W)
Time: 04:25:40
(UTC-06:00)

ADEOS II - Visible Passes

Search period start: 02 October 2014 00:00
Search period end: 12 October 2014 00:00
Orbit: 801 x 803 km, 98.3° (Epoch: 01 October)

Date Brightness Start Highest point End Pass type
(mag) Time Alt. Az. Time Alt. Az. Time Alt. Az.
02 Oct 5.2 19:37:05 10° SW 19:40:34 18° W 19:44:05 10° NW visible
03 Oct 4.8 06:14:15 10° NE 06:18:27 24° E 06:22:37 10° SSE visible
03 Oct 4.2 19:09:45 10° SSW 19:14:24 32° W 19:19:06 10° NW visible
04 Oct 5.4 05:49:55 10° ENE 05:52:14 13° E 05:54:32 10° ESE visible
06 Oct 3.8 06:35:25 10° NNE 06:40:21 40° E 06:45:15 10° SSE visible
06 Oct 5.1 19:32:37 10° SW 19:36:20 20° W 19:40:04 10° NW visible
07 Oct 4.9 06:10:11 10° NE 06:14:13 22° E 06:18:13 10° SE visible
07 Oct 4.1 19:05:25 10° SSW 19:10:11 35° W 19:14:58 10° NNW visible
08 Oct 5.5 05:46:11 10° ENE 05:47:59 12° E 05:49:47 10° ESE visible
09 Oct 5.6 19:56:52 10° WSW 19:58:20 11° W 19:59:47 10° WNW visible
10 Oct 3.9 06:31:17 10° NNE 06:36:07 37° E 06:40:56 10° SSE visible
10 Oct 5.0 19:28:10 10° SW 19:32:05 21° W 19:36:01 10° NW visible
11 Oct 5.0 06:06:08 10° NE 06:09:58 20° E 06:13:47 10° SE visible
11 Oct 3.9 19:01:05 10° SSW 19:05:56 38° W 19:10:49 10° NNW visible
